EW5545 Weather Reports


Display with metric or nautical units.
time (UTC)temp
F
wind
direction
speed
MPH
gust
MPH
rain 1hr
in
rain 24hr
in
rain mn
in
humidity
%
barometer
mb
20200228003012 45 149 2.0 3.0 0.00 0.00 0.00 63 1009.6
20200228002510 45 186 2.0 3.0 0.00 0.00 0.00 63 1009.7
20200228002012 45 161 2.0 5.0 0.00 0.00 0.00 62 1009.9
20200228001509 45 180 3.0 6.0 0.00 0.00 0.00 61 1010.0
20200228001015 45 180 3.0 8.0 0.00 0.00 0.00 60 1010.1
20200228000511 45 197 5.0 9.0 0.00 0.00 0.00 59 1010.2
20200228000009 45 185 5.0 9.0 0.00 0.00 0.00 59 1010.3
20200227235509 45 194 6.0 10.0 0.00 0.00 0.00 58 1010.4
20200227235012 45 194 6.0 12.0 0.00 0.00 0.00 58 1010.5
20200227234510 45 190 6.0 12.0 0.00 0.00 0.00 58 1010.5
20200227234012 45 179 5.0 10.0 0.00 0.00 0.00 58 1010.6
20200227233509 44 193 3.0 6.0 0.00 0.00 0.00 58 1010.5
20200227233012 44 181 3.0 6.0 0.00 0.00 0.00 57 1010.6
20200227232508 44 182 3.0 6.0 0.00 0.00 0.00 57 1010.7
20200227232012 44 182 2.0 5.0 0.00 0.00 0.00 58 1010.6
20200227231509 44 173 2.0 5.0 0.00 0.00 0.00 57 1010.6
20200227231014 43 192 2.0 5.0 0.00 0.00 0.00 58 1010.7
20200227230512 43 190 2.0 9.0 0.00 0.00 0.00 59 1010.6
20200227230013 43 151 3.0 9.0 0.00 0.00 0.00 59 1010.5
20200227225511 43 134 2.0 6.0 0.00 0.00 0.00 60 1010.5
20200227225016 42 136 2.0 6.0 0.00 0.00 0.00 61 1010.3
20200227224514 42 123 1.0 3.0 0.00 0.00 0.00 61 1010.4
20200227224045 43 131 2.0 7.0 0.00 0.00 0.00 62 1010.4
20200227223513 43 139 2.0 7.0 0.00 0.00 0.00 61 1010.5
20200227223012 43 150 4.0 7.0 0.00 0.00 0.00 61 1010.4
20200227222512 43 145 3.0 8.0 0.00 0.00 0.00 61 1010.5
20200227222012 43 151 3.0 7.0 0.00 0.00 0.00 60 1010.5
20200227221509 43 155 2.0 7.0 0.00 0.00 0.00 60 1010.5
20200227221014 43 177 4.0 7.0 0.00 0.00 0.00 60 1010.6
20200227220510 43 177 4.0 8.0 0.00 0.00 0.00 60 1010.8
20200227220009 43 190 4.0 8.0 0.00 0.00 0.00 61 1010.9
20200227215508 43 175 3.0 7.0 0.00 0.00 0.00 61 1011.0
20200227215012 43 185 3.0 7.0 0.00 0.00 0.00 61 1011.2
20200227214510 43 181 3.0 7.0 0.00 0.00 0.00 61 1011.2
20200227214012 43 190 5.0 9.0 0.00 0.00 0.00 61 1011.2
20200227213510 43 166 4.0 7.0 0.00 0.00 0.00 61 1011.3
20200227213013 43 185 3.0 6.0 0.00 0.00 0.00 61 1011.5
20200227212508 43 186 3.0 7.0 0.00 0.00 0.00 61 1011.6
20200227212011 43 188 3.0 7.0 0.00 0.00 0.00 61 1011.8
20200227211509 43 184 3.0 7.0 0.00 0.00 0.00 61 1011.9
20200227211013 43 180 4.0 8.0 0.00 0.00 0.00 61 1012.0
20200227210510 42 185 4.0 7.0 0.00 0.00 0.00 62 1012.2
20200227210010 42 185 5.0 8.0 0.00 0.00 0.00 62 1012.4
20200227205511 42 175 5.0 7.0 0.00 0.00 0.00 62 1012.4
20200227205016 42 183 4.0 8.0 0.00 0.00 0.00 63 1012.4
20200227204515 42 192 5.0 7.0 0.00 0.00 0.00 64 1012.5
20200227204012 42 190 3.0 7.0 0.00 0.00 0.00 64 1012.5
20200227203509 42 184 3.0 7.0 0.00 0.00 0.00 65 1012.5
20200227203011 42 190 3.0 6.0 0.00 0.00 0.00 64 1012.5
20200227202508 42 196 5.0 7.0 0.00 0.00 0.00 64 1012.5
20200227202011 42 175 5.0 8.0 0.00 0.00 0.00 64 1012.6
20200227201509 42 184 3.0 6.0 0.00 0.00 0.00 64 1012.5
20200227201014 42 193 3.0 6.0 0.00 0.00 0.00 64 1012.6
20200227200510 42 194 3.0 7.0 0.00 0.00 0.00 65 1012.5
20200227200010 42 180 3.0 5.0 0.00 0.00 0.00 65 1012.6
20200227195509 42 200 3.0 7.0 0.00 0.00 0.00 64 1012.7
20200227195011 42 199 5.0 8.0 0.00 0.00 0.00 65 1012.7
20200227194508 41 192 4.0 8.0 0.00 0.00 0.00 65 1012.6
20200227194025 41 181 3.0 7.0 0.00 0.00 0.00 65 1012.6
20200227193515 41 195 5.0 6.0 0.00 0.00 0.00 66 1012.6
20200227193012 41 195 4.0 8.0 0.00 0.00 0.00 66 1012.6
20200227192511 41 187 3.0 6.0 0.00 0.00 0.00 66 1012.6
20200227192020 41 186 3.0 6.0 0.00 0.00 0.00 67 1012.7
20200227191509 41 189 2.0 6.0 0.00 0.00 0.00 67 1012.7
20200227191013 41 193 3.0 6.0 0.00 0.00 0.00 67 1012.8
20200227190512 40 208 3.0 5.0 0.00 0.00 0.00 68 1012.6
20200227190011 40 192 1.0 3.0 0.00 0.00 0.00 69 1012.7
20200227185509 40 184 2.0 3.0 0.00 0.00 0.00 69 1012.7
20200227185015 40 189 1.0 3.0 0.00 0.00 0.00 69 1012.7
20200227184522 40 217 2.0 3.0 0.00 0.00 0.00 69 1012.7
20200227184014 40 186 0.0 2.0 0.00 0.00 0.00 69 1012.7
20200227183512 40 140 0.0 2.0 0.00 0.00 0.00 68 1012.7
20200227183011 41 218 1.0 2.0 0.00 0.00 0.00 68 1012.8
20200227182509 40 190 3.0 6.0 0.00 0.00 0.00 68 1012.8
20200227182011 41 194 1.0 3.0 0.00 0.00 0.00 68 1012.8
20200227181509 41 224 1.0 2.0 0.00 0.00 0.00 67 1012.7
20200227181012 42 211 1.0 2.0 0.00 0.00 0.00 66 1012.6
20200227180510 42 207 0.0 1.0 0.00 0.00 0.00 65 1012.6
20200227180010 42 193 0.0 1.0 0.00 0.00 0.00 63 1012.5
20200227175509 43 197 0.0 1.0 0.00 0.00 0.00 62 1012.4
20200227175011 44 171 0.0 1.0 0.00 0.00 0.00 60 1012.4
20200227174508 45 172 0.0 1.0 0.00 0.00 0.00 58 1012.4
20200227174012 46 91 1.0 1.0 0.00 0.00 0.00 55 1012.5
20200227173509 47 30 0.0 1.0 0.00 0.00 0.00 54 1012.5
20200227173011 47 30 1.0 2.0 0.00 0.00 0.00 53 1012.4
20200227172508 47 29 1.0 2.0 0.00 0.00 0.00 53 1012.5
20200227172010 47 38 1.0 1.0 0.00 0.00 0.00 53 1012.5
20200227171509 47 25 0.0 1.0 0.00 0.00 0.00 53 1012.4
20200227171013 47 24 1.0 2.0 0.00 0.00 0.00 53 1012.4
20200227170509 47 27 1.0 2.0 0.00 0.00 0.00 52 1012.4
20200227170009 47 30 0.0 3.0 0.00 0.00 0.00 52 1012.4
20200227165509 48 28 1.0 3.0 0.00 0.00 0.00 52 1012.3
20200227165011 48 33 1.0 3.0 0.00 0.00 0.00 52 1012.3
20200227164513 48 22 1.0 3.0 0.00 0.00 0.00 51 1012.2
20200227164019 48 36 1.0 3.0 0.00 0.00 0.00 51 1012.3
20200227163538 48 45 3.0 9.0 0.00 0.00 0.00 50 1012.3
20200227163011 48 32 3.0 7.0 0.00 0.00 0.00 50 1012.2
20200227162511 49 30 3.0 5.0 0.00 0.00 0.00 49 1012.2
20200227162011 49 32 2.0 5.0 0.00 0.00 0.00 48 1012.2
20200227161508 49 33 3.0 7.0 0.00 0.00 0.00 48 1012.1
20200227161013 49 39 5.0 9.0 0.00 0.00 0.00 47 1012.2
20200227160509 49 27 3.0 7.0 0.00 0.00 0.00 46 1012.2
20200227160010 49 39 3.0 9.0 0.00 0.00 0.00 45 1012.2
20200227155509 50 36 2.0 7.0 0.00 0.00 0.00 44 1012.3
20200227155011 50 32 5.0 8.0 0.00 0.00 0.00 44 1012.3
20200227154508 50 36 3.0 8.0 0.00 0.00 0.00 43 1012.3
20200227154010 50 37 2.0 10.0 0.00 0.00 0.00 44 1012.2
20200227153509 50 23 5.0 8.0 0.00 0.00 0.00 44 1012.3
20200227153012 50 38 6.0 14.0 0.00 0.00 0.00 45 1012.3
20200227152508 50 37 3.0 8.0 0.00 0.00 0.00 46 1012.3
20200227152011 50 27 6.0 10.0 0.00 0.00 0.00 45 1012.3
20200227151509 51 29 6.0 10.0 0.00 0.00 0.00 45 1012.3
20200227151012 51 28 5.0 12.0 0.00 0.00 0.00 44 1012.3
20200227150511 51 34 6.0 10.0 0.00 0.00 0.00 43 1012.4
20200227150010 51 11 5.0 10.0 0.00 0.00 0.00 41 1012.3
20200227145508 51 39 6.0 10.0 0.00 0.00 0.00 42 1012.3
20200227145013 51 44 5.0 12.0 0.00 0.00 0.00 42 1012.3
20200227144521 51 37 6.0 14.0 0.00 0.00 0.00 41 1012.3
20200227144010 51 350 5.0 12.0 0.00 0.00 0.00 42 1012.5
20200227143509 51 8 5.0 12.0 0.00 0.00 0.00 42 1012.5
20200227143010 51 29 5.0 12.0 0.00 0.00 0.00 45 1012.4
20200227142508 51 24 3.0 10.0 0.00 0.00 0.00 46 1012.4
20200227142010 52 319 6.0 12.0 0.00 0.00 0.00 44 1012.5
20200227141509 52 8 6.0 12.0 0.00 0.00 0.00 45 1012.5
20200227141012 51 314 5.0 12.0 0.00 0.00 0.00 43 1012.7
20200227140509 51 349 7.0 13.0 0.00 0.00 0.00 44 1012.6
20200227140010 51 15 4.0 9.0 0.00 0.00 0.00 47 1012.7
20200227135508 51 26 6.0 10.0 0.00 0.00 0.00 46 1013.0
20200227135011 51 354 6.0 12.0 0.00 0.00 0.00 46 1013.0
20200227134508 50 351 5.0 12.0 0.00 0.00 0.00 47 1012.9
20200227134019 50 8 6.0 13.0 0.00 0.00 0.00 48 1012.9
20200227133511 51 301 7.0 12.0 0.00 0.00 0.00 48 1012.7
20200227133012 51 7 6.0 12.0 0.00 0.00 0.00 51 1012.6
20200227132511 51 24 7.0 13.0 0.00 0.00 0.00 50 1012.6
20200227132010 51 13 6.0 17.0 0.00 0.00 0.00 49 1012.5
20200227131508 51 10 7.0 12.0 0.00 0.00 0.00 50 1012.3
20200227131011 51 28 7.0 17.0 0.00 0.00 0.00 50 1012.3
20200227130509 51 343 9.0 17.0 0.00 0.00 0.00 48 1012.3
20200227130010 51 340 9.0 16.0 0.00 0.00 0.00 48 1012.2
20200227125508 51 331 10.0 21.0 0.00 0.00 0.00 50 1012.2
20200227125012 50 1 7.0 17.0 0.00 0.00 0.00 52 1012.1
20200227124515 51 352 13.0 20.0 0.00 0.00 0.00 50 1012.1
20200227124010 51 16 9.0 14.0 0.00 0.00 0.00 51 1012.0
20200227123509 50 12 5.0 14.0 0.00 0.00 0.00 53 1012.0
20200227123010 50 9 8.0 14.0 0.00 0.00 0.00 54 1012.1
20200227122508 50 5 7.0 14.0 0.00 0.00 0.00 54 1012.0
20200227122011 50 15 9.0 16.0 0.00 0.00 0.00 53 1012.0
20200227121509 50 332 8.0 17.0 0.00 0.00 0.00 54 1012.0
20200227121011 50 8 7.0 13.0 0.00 0.00 0.00 55 1011.9
20200227120509 49 9 8.0 17.0 0.00 0.00 0.00 57 1012.0
20200227120010 49 288 7.0 15.0 0.00 0.00 0.00 59 1012.1
20200227115508 49 1 6.0 12.0 0.00 0.00 0.00 59 1012.1
20200227115009 48 325 6.0 16.0 0.00 0.00 0.00 60 1012.2
20200227114509 48 261 5.0 17.0 0.00 0.00 0.00 63 1012.1
20200227114010 47 255 7.0 14.0 0.00 0.00 0.00 65 1012.1
20200227113509 47 347 7.0 14.0 0.00 0.00 0.00 67 1012.2
20200227113009 47 0 6.0 15.0 0.00 0.00 0.00 67 1012.3
20200227112509 47 304 6.0 15.0 0.00 0.00 0.00 68 1012.3
20200227112009 47 327 6.0 12.0 0.00 0.00 0.00 68 1012.4
20200227111508 47 331 5.0 12.0 0.00 0.00 0.00 68 1012.5
20200227111011 47 313 6.0 16.0 0.00 0.00 0.00 68 1012.5
20200227110509 46 311 10.0 22.0 0.00 0.00 0.00 67 1012.6
20200227110011 47 326 8.0 17.0 0.00 0.00 0.00 66 1012.6
20200227105510 47 315 6.0 12.0 0.00 0.00 0.00 66 1012.5
20200227105011 46 355 7.0 20.0 0.00 0.00 0.00 68 1012.4
20200227104511 45 305 4.0 9.0 0.00 0.00 0.00 68 1012.4
20200227104015 44 11 5.0 13.0 0.00 0.00 0.00 70 1012.3
20200227103516 44 319 6.0 13.0 0.00 0.00 0.00 70 1012.3
20200227103010 44 346 7.0 16.0 0.00 0.00 0.00 70 1012.5
20200227102511 46 359 12.0 23.0 0.00 0.00 0.00 68 1012.5
20200227102010 47 357 7.0 20.0 0.00 0.00 0.00 63 1012.2
20200227101508 48 333 12.0 26.0 0.00 0.00 0.00 61 1012.1
20200227101010 48 10 8.0 16.0 0.00 0.00 0.00 62 1011.8
20200227100510 47 320 6.0 14.0 0.00 0.00 0.00 63 1011.7
20200227100008 47 303 5.0 15.0 0.00 0.00 0.00 63 1011.4
20200227095508 48 311 6.0 17.0 0.00 0.00 0.00 60 1011.2
20200227095010 48 277 5.0 21.0 0.00 0.00 0.00 61 1011.0
20200227094509 49 295 7.0 21.0 0.00 0.00 0.00 62 1011.0
20200227094009 48 280 7.0 16.0 0.00 0.00 0.00 63 1011.0
20200227093508 48 253 10.0 20.0 0.00 0.00 0.00 62 1010.9
20200227093009 48 312 10.0 23.0 0.00 0.00 0.00 62 1010.8
20200227092507 48 279 10.0 26.0 0.00 0.00 0.00 61 1010.7
20200227092009 48 305 6.0 14.0 0.00 0.00 0.00 61 1010.6
20200227091509 48 302 9.0 18.0 0.00 0.00 0.00 59 1010.5
20200227091009 48 292 10.0 20.0 0.00 0.00 0.00 60 1010.4
20200227090509 48 329 7.0 20.0 0.00 0.00 0.00 60 1010.3
20200227090009 48 325 7.0 15.0 0.00 0.00 0.00 60 1010.1
20200227085508 48 325 6.0 20.0 0.00 0.00 0.00 60 1010.1
20200227085009 48 313 9.0 20.0 0.00 0.00 0.00 59 1009.9
20200227084508 48 284 6.0 12.0 0.00 0.00 0.00 61 1009.9
20200227084009 48 306 6.0 13.0 0.00 0.00 0.00 62 1009.8
20200227083509 48 298 6.0 13.0 0.00 0.00 0.00 63 1009.6
20200227083009 47 319 6.0 15.0 0.00 0.00 0.00 64 1009.6
20200227082519 47 285 9.0 20.0 0.00 0.00 0.00 64 1009.3
20200227082047 47 259 6.0 20.0 0.00 0.00 0.00 64 1009.1
20200227081508 47 316 9.0 21.0 0.00 0.00 0.00 64 1009.0
20200227081009 47 290 12.0 24.0 0.00 0.00 0.00 64 1008.9
20200227080509 47 258 8.0 18.0 0.00 0.00 0.00 64 1008.8
20200227080009 46 295 10.0 17.0 0.00 0.00 0.00 65 1008.7
20200227075508 46 317 7.0 15.0 0.00 0.00 0.00 66 1008.6
20200227075008 46 298 9.0 23.0 0.00 0.00 0.00 66 1008.5
20200227074512 45 303 6.0 16.0 0.00 0.00 0.00 65 1008.4
20200227074013 45 253 6.0 16.0 0.00 0.00 0.00 64 1008.4
20200227073513 45 286 7.0 16.0 0.00 0.00 0.00 63 1008.2
20200227073009 45 353 7.0 21.0 0.00 0.00 0.00 63 1008.1
20200227072511 45 301 8.0 21.0 0.00 0.00 0.00 62 1008.0
20200227072009 45 326 7.0 20.0 0.00 0.00 0.00 62 1007.9
20200227071508 45 267 6.0 20.0 0.00 0.00 0.00 63 1007.8
20200227071009 45 238 5.0 12.0 0.00 0.00 0.00 63 1007.7
20200227070509 45 282 10.0 22.0 0.00 0.00 0.00 63 1007.6
20200227070009 44 297 6.0 17.0 0.00 0.00 0.00 64 1007.5
20200227065509 44 266 6.0 16.0 0.00 0.00 0.00 65 1007.4
20200227065009 43 302 6.0 17.0 0.00 0.00 0.00 66 1007.3
20200227064511 43 319 7.0 18.0 0.00 0.00 0.00 67 1007.1
20200227064011 43 276 6.0 15.0 0.00 0.00 0.00 68 1006.8
20200227063509 42 260 7.0 13.0 0.00 0.00 0.00 70 1006.6
20200227063010 42 262 4.0 15.0 0.00 0.00 0.00 71 1006.5
20200227062507 42 248 6.0 21.0 0.00 0.00 0.00 70 1006.4
20200227062009 42 308 7.0 14.0 0.00 0.00 0.00 69 1006.3
20200227061508 43 271 7.0 20.0 0.00 0.00 0.00 67 1006.2
20200227061009 43 251 7.0 18.0 0.00 0.00 0.00 62 1006.2
20200227060509 43 272 6.0 18.0 0.00 0.00 0.00 61 1005.9
20200227060009 43 241 8.0 20.0 0.00 0.00 0.00 61 1005.7
20200227055507 43 258 8.0 20.0 0.00 0.00 0.00 61 1005.7
20200227055008 43 246 13.0 25.0 0.00 0.00 0.00 60 1005.5
20200227054509 43 251 10.0 21.0 0.00 0.00 0.00 60 1005.5
20200227054009 44 278 7.0 15.0 0.00 0.00 0.00 59 1005.5
20200227053508 44 242 6.0 15.0 0.00 0.00 0.00 57 1005.5
20200227053009 44 252 13.0 20.0 0.00 0.00 0.00 56 1005.3
20200227052508 43 245 6.0 13.0 0.00 0.00 0.00 57 1005.1
20200227052009 43 251 7.0 12.0 0.00 0.00 0.00 59 1004.9
20200227051508 43 222 3.0 10.0 0.00 0.00 0.00 60 1004.9
20200227051012 43 225 5.0 12.0 0.00 0.00 0.00 60 1004.8
20200227050510 43 225 6.0 12.0 0.00 0.00 0.00 61 1004.7
20200227050010 43 226 7.0 14.0 0.00 0.00 0.00 62 1004.6
20200227045509 43 226 7.0 13.0 0.00 0.00 0.00 62 1004.6
20200227045011 43 221 6.0 12.0 0.00 0.00 0.00 63 1004.5
20200227044510 43 236 7.0 16.0 0.00 0.00 0.00 63 1004.4
20200227044013 43 220 8.0 20.0 0.00 0.00 0.00 63 1004.4
20200227043513 43 222 8.0 20.0 0.00 0.00 0.00 63 1004.4
20200227043010 43 232 10.0 16.0 0.00 0.00 0.00 63 1004.4
20200227042512 43 232 7.0 12.0 0.00 0.00 0.00 64 1004.4
20200227042010 43 232 5.0 15.0 0.00 0.00 0.00 64 1004.4
20200227041509 43 222 6.0 13.0 0.00 0.00 0.00 64 1004.3
20200227041011 43 237 9.0 15.0 0.00 0.00 0.00 64 1004.2
20200227040509 43 222 7.0 13.0 0.00 0.00 0.00 64 1004.2
20200227040010 43 227 8.0 13.0 0.00 0.00 0.00 64 1004.2
20200227035510 43 232 8.0 16.0 0.00 0.00 0.00 63 1004.2
20200227033019 43 222 10.0 14.0 0.00 0.00 0.00 66 1003.8
20200227032513 43 240 9.0 13.0 0.00 0.00 0.00 66 1003.8
20200227032017 43 227 9.0 16.0 0.00 0.00 0.00 66 1003.7
20200227031512 43 224 10.0 20.0 0.00 0.00 0.00 66 1003.6
20200227031018 43 220 9.0 20.0 0.00 0.00 0.00 66 1003.7
20200227030514 43 222 7.0 13.0 0.00 0.00 0.00 66 1003.6
20200227030012 43 223 7.0 15.0 0.00 0.00 0.00 65 1003.6
20200227025513 43 237 6.0 15.0 0.00 0.00 0.00 65 1003.5
20200227025018 43 227 6.0 15.0 0.00 0.00 0.00 65 1003.5
20200227024520 43 233 7.0 12.0 0.00 0.00 0.00 65 1003.4
20200227024018 43 231 6.0 14.0 0.00 0.00 0.00 64 1003.4
20200227023513 43 232 7.0 13.0 0.00 0.00 0.00 64 1003.2
20200227023022 43 232 6.0 14.0 0.00 0.00 0.00 64 1003.1
20200227022511 43 230 6.0 14.0 0.00 0.00 0.00 64 1003.0
20200227022021 44 219 7.0 14.0 0.00 0.00 0.00 64 1002.9
20200227021513 44 239 9.0 16.0 0.00 0.00 0.00 64 1002.8
20200227021019 44 233 9.0 16.0 0.00 0.00 0.00 64 1002.8
20200227020512 44 236 9.0 18.0 0.00 0.00 0.00 63 1002.7
20200227020011 44 236 9.0 18.0 0.00 0.00 0.00 63 1002.5
20200227015512 44 221 10.0 18.0 0.00 0.00 0.00 64 1002.5
20200227015018 44 226 11.0 20.0 0.00 0.00 0.00 64 1002.3
20200227014511 45 221 11.0 18.0 0.00 0.00 0.00 63 1002.3
20200227014020 45 221 11.0 21.0 0.00 0.00 0.00 63 1002.3
20200227013511 45 232 10.0 21.0 0.00 0.00 0.00 63 1002.5
20200227013016 45 224 11.0 20.0 0.00 0.00 0.00 63 1002.4
20200227012511 45 228 10.0 20.0 0.00 0.00 0.00 62 1002.5
20200227012016 45 231 15.0 26.0 0.00 0.00 0.00 63 1002.3
20200227011511 45 225 10.0 22.0 0.00 0.00 0.00 63 1002.4
20200227011017 45 229 11.0 17.0 0.00 0.00 0.00 63 1002.5
20200227010511 45 217 12.0 21.0 0.00 0.00 0.00 62 1002.4
20200227010011 45 220 13.0 23.0 0.00 0.00 0.00 62 1002.3
20200227005511 45 221 12.0 31.0 0.00 0.00 0.00 61 1002.1
20200227005016 45 229 12.0 28.0 0.00 0.00 0.00 61 1002.2
20200227004511 45 214 14.0 28.0 0.00 0.00 0.00 63 1002.1
20200227004016 45 229 10.0 24.0 0.00 0.00 0.00 65 1002.2
20200227003511 45 201 12.0 20.0 0.00 0.00 0.00 66 1002.2